Flag for Colombia Weather past 2 weeks in Bogota, Colombia

Now
68 °F

Scattered clouds.


Feels Like: 68 °F
Forecast: 44 / 69 °F
Wind: 12 mph from Southeast

Location: Bogota / Eldorado

Current Time: Dec 28, 2014 at 12:26:21 PM

Latest Report: Dec 28, 2014 at 12:00 PM


Visibility: N/A

Pressure: 30.33 "Hg

Humidity: 40%

Dew point: 43 °F

Location of BogotaLocation

Historic Weather in Bogota — Graph

°F

Bogota temperature yesterday

Maximum temperature yesterday: 72 °F (at 2:00 PM)
Minimum temperature yesterday: 46 °F (at 3:00 AM)
Average temperature yesterday: 57 °F

Past Weeks' High & Low Weather Summary

 TemperatureHumidityPressure
High84 °F (Dec 16, 11:00 AM)100% (Dec 14, 12:00 AM)30.40 "Hg (Dec 14, 12:00 AM)
Low41 °F (Dec 19, 5:00 AM)27% (Dec 26, 10:00 AM)29.96 "Hg (Dec 16, 11:00 AM)
Average56 °F76%30.30 "Hg
* Reported Dec 13 11:00 AM — Dec 28 11:00 AM, Bogota, Weather by CustomWeather, © 2014

Note: Actual official high and low records may vary slightly from our data, if they occured in-between our weather recording intervals... More about our weather records

Advertising

Bogota weather history for previous 24 hours

 ConditionsComfort  
Time TempWeatherWind HumidityBarometerVisibility
11:00 AM
Dec 28
66 °FScattered clouds.14 mph40%30.35 "HgN/A
10:00 AM64 °FPassing clouds.12 mph52%30.37 "HgN/A
9:00 AM59 °FPassing clouds.7 mph63%30.37 "HgN/A
8:00 AM55 °FPassing clouds.7 mph77%30.37 "HgN/A
7:00 AM46 °FPassing clouds.5 mph93%30.35 "HgN/A
6:00 AM43 °FPassing clouds.5 mph93%30.33 "HgN/A
5:00 AM45 °FPassing clouds.7 mph93%30.32 "HgN/A
4:00 AM45 °FPassing clouds.6 mph93%30.31 "HgN/A
3:00 AM48 °FPassing clouds.7 mph94%30.32 "HgN/A
2:00 AM46 °FPassing clouds.5 mph93%30.33 "HgN/A
1:00 AM46 °FPassing clouds.7 mph93%30.35 "HgN/A
12:00 AM46 °FPassing clouds.5 mph93%30.37 "HgN/A
11:00 PM
Dec 27
50 °FPassing clouds.3 mph88%30.38 "HgN/A
10:00 PM50 °FPassing clouds.3 mph88%30.38 "HgN/A
9:00 PM55 °FPassing clouds.2 mph82%30.37 "HgN/A
8:00 PM54 °FPassing clouds.3 mph94%30.35 "HgN/A
7:00 PM57 °FPassing clouds.6 mph82%30.32 "HgN/A
6:00 PM63 °FPassing clouds.9 mph52%30.29 "HgN/A
5:00 PM66 °FScattered clouds.14 mph40%30.26 "HgN/A
4:00 PM70 °FScattered clouds.12 mph33%30.25 "HgN/A
3:00 PM72 °FScattered clouds.14 mph33%30.26 "HgN/A
2:00 PM72 °FScattered clouds.14 mph33%30.27 "HgN/A
1:00 PM70 °FScattered clouds.15 mph35%30.30 "HgN/A
12:00 PM68 °FScattered clouds.14 mph35%30.33 "HgN/A
Weather by CustomWeather, © 2014

See weather overviewHow to use our weather pages